Weather History for Allentown, PA

Change the Weather History Date:

Tuesday, February 12, 2013

  Actual Average (KABE) Record (KABE)
Temperature  
Mean Temperature 36 °F 30 °F  
Max Temperature 41 °F 39 °F 68 °F (1999)
Min Temperature 30 °F 21 °F -6 °F (1979)
Degree Days  
Heating Degree Days 30 35  
Month to date heating degree days 430  
Since 1 July heating degree days 3780  
Cooling Degree Days 0 0  
Month to date cooling degree days 0  
Year to date cooling degree days 0  
Moisture  
Dew Point 23 °F    
Average Humidity 57    
Maximum Humidity 87    
Minimum Humidity 45    
Precipitation  
Precipitation 0.00 in 0.09 in 1.20 in (1985)
Month to date precipitation 1.17  
Year to date precipitation 4.20  
Snow  
Snow 0.00 in 0.40 in 12.10 in (2006)
Month to date snowfall 4.9  
Since 1 July snowfall 20.8  
Snow Depth -    
Sea Level Pressure  
Sea Level Pressure 29.91 in    
Wind  
Wind Speed 9 mph (West)    
Max Wind Speed 16 mph    
Max Gust Speed 30 mph    
Visibility 10 miles    
Events      
T = Trace of Precipitation, MM = Missing Value Source: NWS Daily Summary

Daily Weather History Graph

Daily Weather History Graph

Search for Another Location

Airport:

Trip Planner

Search our weather history database for the weather conditions in past years. The results will help you decide how hot, cold, wet, or windy it might be!

Date:

Astronomy

Feb. 12, 2013 Rise Set
Actual Time 6:59 AM EST 5:33 PM EST
Civil Twilight 6:31 AM EST 6:01 PM EST
Nautical Twilight 5:58 AM EST 6:34 PM EST
Astronomical Twilight 5:27 AM EST 7:05 PM EST
Moon 7:54 AM EST (2/12) 8:33 PM EST (2/12)
Length of Visible Light 11h 30m
Length of Day
10h 34m
Waxing Crescent, 7% of the Moon is Illuminated
Feb 12
Waxing Crescent
Feb 17
First Quarter
Feb 25
Full
Mar 4
Last Quarter
Mar 11
New

Hourly Weather History & Observations

Time (EST) Temp. Windchill Dew Point Humidity Pressure Visibility Wind Dir Wind Speed Gust Speed Precip Events Conditions
12:15 AM 37.4 °F 32.8 °F 33.8 °F 87% 29.78 in 10.0 mi West 5.8 mph - N/A   Clear
12:35 AM 37.4 °F 31.4 °F 32.0 °F 81% 29.78 in 10.0 mi West 8.1 mph - N/A   Clear
12:55 AM 39.2 °F 33.0 °F 28.4 °F 65% 29.78 in 10.0 mi West 9.2 mph - N/A   Clear
1:15 AM 39.2 °F 34.2 °F 26.6 °F 61% 29.78 in 10.0 mi West 6.9 mph - N/A   Scattered Clouds
1:35 AM 37.4 °F 31.4 °F 26.6 °F 65% 29.79 in 10.0 mi West 8.1 mph - N/A   Scattered Clouds
1:55 AM 37.4 °F 30.3 °F 26.6 °F 65% 29.80 in 10.0 mi West 10.4 mph 17.3 mph N/A   Scattered Clouds
2:15 AM 39.2 °F 34.2 °F 26.6 °F 61% 29.81 in 10.0 mi West 6.9 mph 16.1 mph N/A   Mostly Cloudy
2:35 AM 39.2 °F 34.2 °F 26.6 °F 61% 29.81 in 10.0 mi West 6.9 mph - N/A   Overcast
2:55 AM 39.2 °F 33.0 °F 26.6 °F 61% 29.81 in 10.0 mi West 9.2 mph - N/A   Overcast
3:15 AM 39.2 °F 32.5 °F 26.6 °F 61% 29.82 in 10.0 mi West 10.4 mph 18.4 mph N/A   Overcast
3:35 AM 39.2 °F 33.0 °F 26.6 °F 61% 29.83 in 10.0 mi West 9.2 mph 17.3 mph N/A   Overcast
3:55 AM 39.2 °F 31.6 °F 24.8 °F 56% 29.84 in 10.0 mi West 12.7 mph 20.7 mph N/A   Overcast
4:15 AM 37.4 °F 29.8 °F 24.8 °F 60% 29.85 in 10.0 mi West 11.5 mph 17.3 mph N/A   Overcast
4:35 AM 37.4 °F 30.8 °F 23.0 °F 56% 29.85 in 10.0 mi WSW 9.2 mph - N/A   Overcast
4:55 AM 37.4 °F 29.3 °F 23.0 °F 56% 29.86 in 10.0 mi West 12.7 mph 24.2 mph N/A   Overcast
5:15 AM 37.4 °F 29.8 °F 23.0 °F 56% 29.85 in 10.0 mi West 11.5 mph 17.3 mph N/A   Overcast
5:35 AM 37.4 °F 30.8 °F 23.0 °F 56% 29.85 in 10.0 mi West 9.2 mph 18.4 mph N/A   Overcast
5:55 AM 37.4 °F 29.8 °F 23.0 °F 56% 29.86 in 10.0 mi West 11.5 mph 19.6 mph N/A   Overcast
6:15 AM 37.4 °F 29.8 °F 23.0 °F 56% 29.86 in 10.0 mi West 11.5 mph 18.4 mph N/A   Overcast
6:35 AM 37.4 °F 29.3 °F 21.2 °F 52% 29.87 in 10.0 mi WNW 12.7 mph 18.4 mph N/A   Overcast
6:55 AM 37.4 °F 30.3 °F 23.0 °F 56% 29.87 in 10.0 mi West 10.4 mph 21.9 mph N/A   Overcast
7:15 AM 37.4 °F 28.5 °F 23.0 °F 56% 29.88 in 10.0 mi West 15.0 mph 20.7 mph N/A   Overcast
7:35 AM 37.4 °F 29.8 °F 21.2 °F 52% 29.90 in 10.0 mi West 11.5 mph 18.4 mph N/A   Overcast
7:55 AM 37.4 °F 30.8 °F 23.0 °F 56% 29.91 in 10.0 mi West 9.2 mph 20.7 mph N/A   Overcast
8:15 AM 37.4 °F 29.3 °F 21.2 °F 52% 29.91 in 10.0 mi West 12.7 mph 24.2 mph N/A   Overcast
8:35 AM 37.4 °F 28.2 °F 23.0 °F 56% 29.91 in 10.0 mi West 16.1 mph 23.0 mph N/A   Overcast
8:55 AM 37.4 °F 29.8 °F 23.0 °F 56% 29.91 in 10.0 mi West 11.5 mph 23.0 mph N/A   Scattered Clouds
9:15 AM 39.2 °F 31.2 °F 23.0 °F 52% 29.92 in 10.0 mi West 13.8 mph 23.0 mph N/A   Scattered Clouds
9:35 AM 39.2 °F 31.6 °F 23.0 °F 52% 29.92 in 10.0 mi West 12.7 mph 23.0 mph N/A   Clear
9:55 AM 37.4 °F 29.3 °F 21.2 °F 52% 29.93 in 10.0 mi WNW 12.7 mph 25.3 mph N/A   Clear
10:15 AM 37.4 °F 29.3 °F 21.2 °F 52% 29.94 in 10.0 mi West 12.7 mph 29.9 mph N/A   Mostly Cloudy
10:35 AM 39.2 °F 30.8 °F 21.2 °F 49% 29.95 in 10.0 mi West 15.0 mph 23.0 mph N/A   Overcast
10:55 AM 39.2 °F 30.8 °F 21.2 °F 49% 29.96 in 10.0 mi West 15.0 mph 25.3 mph N/A   Overcast
11:15 AM 41.0 °F 32.8 °F 23.0 °F 49% 29.96 in 10.0 mi WNW 16.1 mph 21.9 mph N/A   Overcast
11:35 AM 41.0 °F 34.3 °F 21.2 °F 45% 29.96 in 10.0 mi WNW 11.5 mph 21.9 mph N/A   Mostly Cloudy
11:55 AM 41.0 °F 32.8 °F 23.0 °F 49% 29.96 in 10.0 mi West 16.1 mph 20.7 mph N/A   Scattered Clouds
12:15 PM 39.2 °F 32.5 °F 23.0 °F 52% 29.96 in 10.0 mi West 10.4 mph 23.0 mph N/A   Scattered Clouds
12:35 PM 39.2 °F 32.5 °F 21.2 °F 49% 29.95 in 10.0 mi WNW 10.4 mph 24.2 mph N/A   Mostly Cloudy
12:55 PM 41.0 °F 34.3 °F 23.0 °F 49% 29.96 in 10.0 mi West 11.5 mph 20.7 mph N/A   Scattered Clouds
1:15 PM 39.2 °F 31.6 °F 23.0 °F 52% 29.96 in 10.0 mi WNW 12.7 mph 25.3 mph N/A   Overcast
1:55 PM 39.2 °F 31.2 °F 21.2 °F 49% 29.96 in 10.0 mi West 13.8 mph 24.2 mph N/A   Overcast
2:15 PM 39.2 °F 32.0 °F 23.0 °F 52% 29.94 in 10.0 mi WNW 11.5 mph - N/A   Overcast
2:35 PM 41.0 °F 34.3 °F 23.0 °F 49% 29.94 in 10.0 mi WNW 11.5 mph 21.9 mph N/A   Overcast
2:55 PM 39.2 °F 31.6 °F 21.2 °F 49% 29.93 in 10.0 mi West 12.7 mph 19.6 mph N/A   Mostly Cloudy
3:15 PM 37.4 °F 30.8 °F 23.0 °F 56% 29.94 in 10.0 mi West 9.2 mph 17.3 mph N/A   Mostly Cloudy
3:35 PM 37.4 °F 30.3 °F 21.2 °F 52% 29.91 in 10.0 mi WNW 10.4 mph - N/A   Overcast
3:55 PM 37.4 °F 29.3 °F 21.2 °F 52% 29.87 in 10.0 mi NW 12.7 mph - N/A   Scattered Clouds
4:15 PM 37.4 °F 29.8 °F 21.2 °F 52% 29.90 in 10.0 mi WNW 11.5 mph 17.3 mph N/A   Clear
4:35 PM 37.4 °F 32.8 °F 21.2 °F 52% 29.92 in 10.0 mi West 5.8 mph - N/A   Scattered Clouds
4:55 PM 37.4 °F 30.3 °F 21.2 °F 52% 29.96 in 10.0 mi West 10.4 mph 16.1 mph N/A   Scattered Clouds
5:15 PM 37.4 °F 33.8 °F 21.2 °F 52% 29.96 in 10.0 mi West 4.6 mph - N/A   Mostly Cloudy
5:35 PM 37.4 °F 30.8 °F 23.0 °F 56% 30.00 in 10.0 mi WSW 9.2 mph - N/A   Overcast
5:55 PM 37.4 °F 30.3 °F 23.0 °F 56% 29.99 in 10.0 mi West 10.4 mph - N/A   Overcast
6:15 PM 37.4 °F 30.3 °F 23.0 °F 56% 29.99 in 10.0 mi West 10.4 mph 16.1 mph N/A   Overcast
6:35 PM 35.6 °F 28.6 °F 23.0 °F 60% 29.99 in 10.0 mi West 9.2 mph 16.1 mph N/A   Scattered Clouds
6:55 PM 35.6 °F 28.0 °F 21.2 °F 56% 30.00 in 10.0 mi WNW 10.4 mph - N/A   Clear
7:15 PM 35.6 °F 29.9 °F 21.2 °F 56% 29.99 in 10.0 mi NW 6.9 mph - N/A   Clear
7:35 PM 35.6 °F 30.7 °F 21.2 °F 56% 29.98 in 10.0 mi WNW 5.8 mph - N/A   Clear
7:55 PM 33.8 °F - 21.2 °F 60% 29.99 in 10.0 mi Calm Calm - N/A   Clear
8:15 PM 35.6 °F - 21.2 °F 56% 29.97 in 10.0 mi Calm Calm - N/A   Clear
8:35 PM 33.8 °F - 21.2 °F 60% 29.96 in 10.0 mi Calm Calm - N/A   Clear
8:55 PM 33.8 °F - 21.2 °F 60% 29.95 in 10.0 mi Calm Calm - N/A   Clear
9:15 PM 32.0 °F 28.7 °F 21.2 °F 64% 29.95 in 10.0 mi SW 3.5 mph - N/A   Clear
9:35 PM 32.0 °F - 21.2 °F 64% 29.95 in 10.0 mi Calm Calm - N/A   Clear
9:55 PM 32.0 °F - 21.2 °F 64% 29.94 in 10.0 mi Calm Calm - N/A   Clear
10:15 PM 32.0 °F - 21.2 °F 64% 29.94 in 10.0 mi Calm Calm - N/A   Clear
10:35 PM 32.0 °F 28.7 °F 21.2 °F 64% 29.95 in 10.0 mi SW 3.5 mph - N/A   Clear
10:55 PM 32.0 °F 28.7 °F 21.2 °F 64% 29.96 in 10.0 mi SW 3.5 mph - N/A   Clear
11:15 PM 30.2 °F - 23.0 °F 75% 29.96 in 10.0 mi Calm Calm - N/A   Clear
11:35 PM 30.2 °F 26.7 °F 23.0 °F 75% 29.96 in 10.0 mi SSW 3.5 mph - N/A   Clear
11:55 PM 30.2 °F 26.7 °F 23.0 °F 75% 29.96 in 10.0 mi SW 3.5 mph - N/A   Clear